AFL705 LTBS-HEGN

Flight info

Callsign AFL705
Flight time 1h 43m
Altitude 35000
Route BIRPU1J/01 BIRPU UN127 EXELA UM601 EVENO M601 DASNI M855 RASDA A16 CVO L315 SOKOT DCT
Aircraft B738/M-SDE2E3FGHIRWXY/LB1

Departure

Time 2026-04-26 10:26
Airport Dalaman International Airport (LTBS)

Arrival

Time 2026-04-26 12:09
Airport Hurghada International Airport (HEGN)
Time Latitude Longitude Altitude Speed Heading
2026-04-26 09:59 36.72184 28.79035 11 ft 0 kts 285°
2026-04-26 10:13 36.72184 28.79039 11 ft 0 kts 285°
2026-04-26 10:13 36.72183 28.79043 11 ft 0 kts 285°
2026-04-26 10:14 36.72182 28.79046 11 ft 0 kts 285°
2026-04-26 10:14 36.72181 28.79051 11 ft 1 kts 285°
2026-04-26 10:14 36.72180 28.79056 12 ft 1 kts 285°
2026-04-26 10:14 36.72179 28.79061 12 ft 1 kts 286°
2026-04-26 10:15 36.72178 28.79066 12 ft 1 kts 288°
2026-04-26 10:15 36.72176 28.79071 13 ft 1 kts 291°
2026-04-26 10:15 36.72175 28.79076 12 ft 1 kts 294°
2026-04-26 10:15 36.72173 28.79081 13 ft 1 kts 300°
2026-04-26 10:16 36.72170 28.79086 15 ft 1 kts 306°
2026-04-26 10:16 36.72168 28.79091 13 ft 1 kts 320°
2026-04-26 10:16 36.72164 28.79095 12 ft 1 kts 338°
2026-04-26 10:16 36.72160 28.79097 12 ft 1 kts 353°
2026-04-26 10:17 36.72155 28.79098 12 ft 1 kts
2026-04-26 10:17 36.72150 28.79098 14 ft 1 kts
2026-04-26 10:17 36.72145 28.79097 14 ft 1 kts 10°
2026-04-26 10:17 36.72141 28.79096 14 ft 1 kts 13°
2026-04-26 10:18 36.72136 28.79094 14 ft 1 kts 15°
2026-04-26 10:18 36.72135 28.79094 14 ft 0 kts 15°
2026-04-26 10:21 36.72138 28.79095 14 ft 2 kts 16°
2026-04-26 10:21 36.72171 28.79109 13 ft 9 kts 17°
2026-04-26 10:21 36.72239 28.79132 11 ft 12 kts 15°
2026-04-26 10:22 36.72301 28.79177 13 ft 9 kts 75°
2026-04-26 10:22 36.72290 28.79257 11 ft 9 kts 104°
2026-04-26 10:22 36.72277 28.79334 11 ft 9 kts 91°
2026-04-26 10:22 36.72319 28.79382 11 ft 9 kts 18°
2026-04-26 10:23 36.72378 28.79402 11 ft 9 kts 15°
2026-04-26 10:23 36.72449 28.79426 11 ft 12 kts 15°
2026-04-26 10:23 36.72540 28.79457 11 ft 15 kts 15°
2026-04-26 10:23 36.72621 28.79490 13 ft 8 kts 34°
2026-04-26 10:24 36.72641 28.79537 11 ft 5 kts 84°
2026-04-26 10:24 36.72635 28.79581 11 ft 5 kts 105°
2026-04-26 10:24 36.72619 28.79624 11 ft 6 kts 123°
2026-04-26 10:24 36.72581 28.79667 11 ft 9 kts 155°
2026-04-26 10:25 36.72516 28.79658 11 ft 11 kts 195°
2026-04-26 10:25 36.72329 28.79596 11 ft 58 kts 195°
2026-04-26 10:25 36.71715 28.79387 11 ft 123 kts 195°
2026-04-26 10:25 36.70713 28.79044 33 ft 173 kts 195°
2026-04-26 10:26 36.69532 28.78655 707 ft 173 kts 196°
2026-04-26 10:26 36.68356 28.78266 1466 ft 177 kts 197°
2026-04-26 10:26 36.67111 28.77833 1937 ft 200 kts 196°
2026-04-26 10:26 36.65684 28.77337 2164 ft 225 kts 196°
2026-04-26 10:27 36.64115 28.76798 2511 ft 243 kts 195°
2026-04-26 10:27 36.62395 28.76210 2871 ft 264 kts 195°
2026-04-26 10:27 36.60594 28.75598 3557 ft 270 kts 194°
2026-04-26 10:27 36.58765 28.75009 4353 ft 272 kts 188°
2026-04-26 10:28 36.56912 28.75202 5170 ft 269 kts 156°
2026-04-26 10:28 36.55388 28.76493 5918 ft 267 kts 128°
2026-04-26 10:28 36.54470 28.78476 6691 ft 265 kts 107°
2026-04-26 10:28 36.53956 28.80675 7471 ft 265 kts 104°
2026-04-26 10:29 36.53486 28.82904 8234 ft 267 kts 104°
2026-04-26 10:29 36.53012 28.85145 9002 ft 269 kts 105°
2026-04-26 10:29 36.52527 28.87396 9772 ft 270 kts 105°
2026-04-26 10:29 36.52034 28.89635 10359 ft 277 kts 105°
2026-04-26 10:30 36.51499 28.92046 10526 ft 300 kts 105°
2026-04-26 10:30 36.50895 28.94622 10700 ft 320 kts 111°
2026-04-26 10:30 36.49691 28.96997 11145 ft 330 kts 131°
2026-04-26 10:30 36.48042 28.99017 11797 ft 335 kts 136°
2026-04-26 10:31 36.46310 29.00981 12430 ft 340 kts 136°
2026-04-26 10:31 36.44545 29.02960 13088 ft 344 kts 136°
2026-04-26 10:31 36.42760 29.04975 13768 ft 348 kts 136°
2026-04-26 10:31 36.40964 29.07020 14396 ft 352 kts 136°
2026-04-26 10:32 36.39153 29.09095 15062 ft 355 kts 136°
2026-04-26 10:32 36.37335 29.11185 15733 ft 358 kts 135°
2026-04-26 10:32 36.35497 29.13300 16388 ft 362 kts 135°
2026-04-26 10:32 36.33636 29.15441 17032 ft 365 kts 135°
2026-04-26 10:33 36.31786 29.17567 17661 ft 369 kts 135°
2026-04-26 10:33 36.29849 29.19687 18280 ft 373 kts 137°
2026-04-26 10:33 36.27845 29.21771 18827 ft 377 kts 138°
2026-04-26 10:33 36.25820 29.23857 19390 ft 379 kts 138°
2026-04-26 10:34 36.23789 29.25960 19938 ft 383 kts 138°
2026-04-26 10:34 36.21744 29.28093 20499 ft 386 kts 138°
2026-04-26 10:34 36.19687 29.30245 21046 ft 388 kts 138°
2026-04-26 10:34 36.17610 29.32414 21568 ft 392 kts 138°
2026-04-26 10:35 36.15498 29.34578 22073 ft 395 kts 139°
2026-04-26 10:35 36.13391 29.36715 22565 ft 398 kts 139°
2026-04-26 10:35 36.11240 29.38891 23072 ft 401 kts 139°
2026-04-26 10:35 36.09069 29.41088 23563 ft 404 kts 139°
2026-04-26 10:36 36.06885 29.43301 23956 ft 407 kts 139°
2026-04-26 10:36 36.04690 29.45528 24352 ft 410 kts 139°
2026-04-26 10:36 36.02478 29.47770 24763 ft 412 kts 139°
2026-04-26 10:36 36.00254 29.50023 25154 ft 415 kts 139°
2026-04-26 10:37 35.98046 29.52327 25528 ft 416 kts 134°
2026-04-26 10:37 35.96166 29.55043 25882 ft 417 kts 124°
2026-04-26 10:37 35.94680 29.58136 26231 ft 420 kts 115°
2026-04-26 10:37 35.93628 29.61503 26583 ft 422 kts 108°
2026-04-26 10:38 35.92724 29.64950 26944 ft 424 kts 107°
2026-04-26 10:38 35.91825 29.68430 27283 ft 427 kts 107°
2026-04-26 10:38 35.90911 29.71936 27616 ft 430 kts 108°
2026-04-26 10:38 35.89983 29.75447 27947 ft 432 kts 108°
2026-04-26 10:39 35.89039 29.78971 28276 ft 434 kts 108°
2026-04-26 10:39 35.88082 29.82517 28594 ft 437 kts 108°
2026-04-26 10:39 35.87117 29.86078 28875 ft 440 kts 109°
2026-04-26 10:39 35.86142 29.89666 29116 ft 444 kts 109°
2026-04-26 10:40 35.85164 29.93269 29504 ft 443 kts 109°
2026-04-26 10:40 35.84185 29.96870 29871 ft 444 kts 109°
2026-04-26 10:40 35.83199 30.00493 30126 ft 446 kts 108°
2026-04-26 10:40 35.82253 30.04125 30576 ft 442 kts 108°
2026-04-26 10:41 35.81346 30.07734 30976 ft 441 kts 107°
2026-04-26 10:41 35.80458 30.11311 31127 ft 445 kts 107°
2026-04-26 10:41 35.78618 30.18691 31389 ft 453 kts 108°
2026-04-26 10:42 35.77689 30.22394 31795 ft 451 kts 108°
2026-04-26 10:42 35.76761 30.26071 32118 ft 450 kts 109°
2026-04-26 10:42 35.75827 30.29760 32379 ft 451 kts 108°
2026-04-26 10:42 35.74892 30.33447 32655 ft 451 kts 109°
2026-04-26 10:43 35.73954 30.37136 32945 ft 451 kts 108°
2026-04-26 10:43 35.73016 30.40818 33246 ft 451 kts 109°
2026-04-26 10:43 35.72073 30.44514 33403 ft 454 kts 108°
2026-04-26 10:43 35.71124 30.48229 33614 ft 456 kts 109°
2026-04-26 10:44 35.70174 30.51942 33946 ft 454 kts 109°
2026-04-26 10:44 35.69225 30.55649 34181 ft 454 kts 109°
2026-04-26 10:44 35.68274 30.59354 34364 ft 455 kts 109°
2026-04-26 10:44 35.67320 30.63074 34551 ft 457 kts 109°
2026-04-26 10:45 35.66363 30.66800 34742 ft 457 kts 108°
2026-04-26 10:45 35.65406 30.70525 34960 ft 457 kts 109°
2026-04-26 10:45 35.63372 30.77960 34924 ft 457 kts 119°
2026-04-26 10:46 35.61544 30.81096 34967 ft 450 kts 137°
2026-04-26 10:46 35.59067 30.83410 34946 ft 446 kts 153°
2026-04-26 10:46 35.56232 30.84897 34946 ft 442 kts 167°
2026-04-26 10:46 35.53212 30.85445 34961 ft 438 kts 179°
2026-04-26 10:47 35.47117 30.85602 34947 ft 438 kts 181°
2026-04-26 10:47 35.41061 30.85708 34940 ft 439 kts 180°
2026-04-26 10:48 35.34950 30.85888 34941 ft 439 kts 180°
2026-04-26 10:48 35.28838 30.86097 34945 ft 440 kts 180°
2026-04-26 10:49 35.22711 30.86307 34945 ft 441 kts 180°
2026-04-26 10:49 35.16570 30.86514 34945 ft 441 kts 180°
2026-04-26 10:50 35.11462 30.86684 34948 ft 442 kts 180°
2026-04-26 10:50 35.07357 30.86821 35240 ft 439 kts 181°
2026-04-26 10:50 35.04307 30.86922 35464 ft 438 kts 181°
2026-04-26 10:51 35.01308 30.87022 35697 ft 436 kts 181°
2026-04-26 10:51 34.95264 30.87223 36115 ft 434 kts 181°
2026-04-26 10:51 34.92245 30.87323 36296 ft 433 kts 181°
2026-04-26 10:52 34.89233 30.87423 36435 ft 433 kts 181°
2026-04-26 10:52 34.86218 30.87522 36583 ft 434 kts 181°
2026-04-26 10:52 34.83197 30.87622 36708 ft 434 kts 181°
2026-04-26 10:52 34.80173 30.87722 36835 ft 435 kts 181°
2026-04-26 10:53 34.77142 30.87822 36928 ft 437 kts 181°
2026-04-26 10:53 34.71021 30.88023 36960 ft 443 kts 181°
2026-04-26 10:54 34.61691 30.88332 36955 ft 450 kts 181°
2026-04-26 10:54 34.55410 30.88613 37183 ft 451 kts 181°
2026-04-26 10:55 34.52283 30.88777 37470 ft 448 kts 181°
2026-04-26 10:55 34.49173 30.88940 37742 ft 446 kts 181°
2026-04-26 10:55 34.47121 30.89046 37892 ft 445 kts 181°
2026-04-26 10:55 34.44026 30.89201 38057 ft 445 kts 181°
2026-04-26 10:56 34.40930 30.89354 38215 ft 445 kts 181°
2026-04-26 10:56 34.37837 30.89505 38359 ft 445 kts 182°
2026-04-26 10:56 34.34734 30.89656 38500 ft 445 kts 182°
2026-04-26 10:56 34.31640 30.89808 38651 ft 445 kts 182°
2026-04-26 10:57 34.28582 30.89957 38766 ft 445 kts 182°
2026-04-26 10:57 34.25491 30.90109 38872 ft 444 kts 182°
2026-04-26 10:57 34.19298 30.90434 38948 ft 447 kts 181°
2026-04-26 10:58 34.13081 30.90786 38958 ft 448 kts 181°
2026-04-26 10:58 34.06842 30.91137 38958 ft 449 kts 181°
2026-04-26 10:59 34.00587 30.91484 38943 ft 450 kts 182°
2026-04-26 10:59 33.94330 30.91828 38955 ft 450 kts 182°
2026-04-26 11:00 33.88088 30.92082 38950 ft 448 kts 183°
2026-04-26 11:00 33.81867 30.92302 38952 ft 446 kts 183°
2026-04-26 11:01 33.75669 30.92527 38939 ft 444 kts 184°
2026-04-26 11:01 33.69546 30.92757 38953 ft 442 kts 184°
2026-04-26 11:02 33.63410 30.92990 38955 ft 440 kts 183°
2026-04-26 11:02 33.57293 30.93222 38958 ft 439 kts 184°
2026-04-26 11:03 33.51187 30.93451 38953 ft 438 kts 184°
2026-04-26 11:03 33.45100 30.93681 38961 ft 438 kts 184°
2026-04-26 11:04 33.39000 30.93911 38961 ft 439 kts 184°
2026-04-26 11:04 33.32919 30.94139 38966 ft 441 kts 184°
2026-04-26 11:05 33.26777 30.94370 38960 ft 442 kts 184°
2026-04-26 11:05 33.20627 30.94601 38961 ft 443 kts 184°
2026-04-26 11:06 33.14456 30.94833 38966 ft 444 kts 184°
2026-04-26 11:06 33.08264 30.95123 38949 ft 447 kts 182°
2026-04-26 11:07 33.02052 30.95789 38956 ft 449 kts 181°
2026-04-26 11:07 32.95838 30.96549 38952 ft 448 kts 181°
2026-04-26 11:08 32.89642 30.97276 38966 ft 447 kts 181°
2026-04-26 11:08 32.83451 30.97975 38958 ft 446 kts 182°
2026-04-26 11:09 32.77284 30.98662 38966 ft 444 kts 182°
2026-04-26 11:09 32.71132 30.99347 38972 ft 443 kts 182°
2026-04-26 11:10 32.64998 31.00029 38971 ft 442 kts 182°
2026-04-26 11:10 32.58887 31.00708 38965 ft 440 kts 182°
2026-04-26 11:11 32.52797 31.01383 38969 ft 439 kts 182°
2026-04-26 11:11 32.46755 31.02052 38979 ft 438 kts 182°
2026-04-26 11:12 32.40686 31.02723 38979 ft 438 kts 182°
2026-04-26 11:12 32.34619 31.03392 38978 ft 437 kts 183°
2026-04-26 11:13 32.28556 31.04061 38975 ft 438 kts 183°
2026-04-26 11:13 32.22485 31.04730 38983 ft 438 kts 183°
2026-04-26 11:14 32.16405 31.05399 38982 ft 440 kts 183°
2026-04-26 11:14 32.10305 31.06070 38965 ft 440 kts 184°
2026-04-26 11:15 32.04228 31.06737 38976 ft 442 kts 184°
2026-04-26 11:15 31.98063 31.07406 38986 ft 443 kts 184°
2026-04-26 11:16 31.91958 31.08061 38988 ft 444 kts 184°
2026-04-26 11:16 31.85792 31.08723 38985 ft 446 kts 184°
2026-04-26 11:17 31.79603 31.09388 38984 ft 447 kts 184°
2026-04-26 11:17 31.73406 31.10053 38981 ft 447 kts 184°
2026-04-26 11:18 31.67198 31.10719 38978 ft 448 kts 184°
2026-04-26 11:18 31.60998 31.11384 38966 ft 446 kts 184°
2026-04-26 11:19 31.54809 31.12045 38969 ft 446 kts 184°
2026-04-26 11:19 31.48612 31.12944 38971 ft 451 kts 180°
2026-04-26 11:20 31.43456 31.13960 38968 ft 452 kts 180°
2026-04-26 11:20 31.36210 31.15379 38969 ft 451 kts 181°
2026-04-26 11:21 31.30018 31.16541 38964 ft 451 kts 181°
2026-04-26 11:21 31.23865 31.17689 38965 ft 451 kts 181°
2026-04-26 11:22 31.17666 31.18845 38961 ft 451 kts 181°
2026-04-26 11:22 31.11467 31.19998 38949 ft 450 kts 181°
2026-04-26 11:23 31.05277 31.21150 38953 ft 451 kts 181°
2026-04-26 11:23 30.99084 31.22301 38960 ft 451 kts 181°
2026-04-26 11:24 30.92890 31.23450 38959 ft 451 kts 181°
2026-04-26 11:24 30.86681 31.24600 38923 ft 451 kts 182°
2026-04-26 11:25 30.80534 31.25738 38948 ft 450 kts 182°
2026-04-26 11:25 30.74350 31.26881 38969 ft 450 kts 182°
2026-04-26 11:26 30.68163 31.28022 38966 ft 450 kts 182°
2026-04-26 11:26 30.61974 31.29164 38959 ft 450 kts 182°
2026-04-26 11:27 30.55791 31.30302 38959 ft 450 kts 182°
2026-04-26 11:27 30.49612 31.31438 38973 ft 449 kts 182°
2026-04-26 11:28 30.43428 31.32574 38971 ft 449 kts 182°
2026-04-26 11:28 30.37255 31.33709 38937 ft 449 kts 182°
2026-04-26 11:29 30.31092 31.34841 38964 ft 448 kts 182°
2026-04-26 11:29 30.24938 31.35968 38976 ft 448 kts 182°
2026-04-26 11:30 30.19823 31.36905 38996 ft 448 kts 182°
2026-04-26 11:30 30.12622 31.38264 38961 ft 453 kts 178°
2026-04-26 11:31 30.09568 31.39366 39005 ft 468 kts 169°
2026-04-26 11:31 30.06634 31.40999 38984 ft 482 kts 160°
2026-04-26 11:31 30.01074 31.45560 38991 ft 494 kts 153°
2026-04-26 11:32 29.95604 31.50373 38998 ft 494 kts 153°
2026-04-26 11:32 29.90125 31.55140 38988 ft 493 kts 154°
2026-04-26 11:33 29.84612 31.59858 38995 ft 493 kts 154°
2026-04-26 11:33 29.79101 31.64539 39000 ft 492 kts 155°
2026-04-26 11:34 29.73588 31.69213 39009 ft 493 kts 155°
2026-04-26 11:34 29.68064 31.73894 39006 ft 493 kts 155°
2026-04-26 11:35 29.62538 31.78573 39022 ft 493 kts 155°
2026-04-26 11:35 29.57947 31.82455 39005 ft 493 kts 155°
2026-04-26 11:36 29.51538 31.87870 39008 ft 491 kts 155°
2026-04-26 11:36 29.45993 31.92545 39016 ft 491 kts 155°
2026-04-26 11:37 29.40488 31.97172 38514 ft 500 kts 155°
2026-04-26 11:37 29.37681 31.99528 37943 ft 499 kts 155°
2026-04-26 11:37 29.34884 32.01883 37357 ft 498 kts 155°
2026-04-26 11:38 29.32100 32.04231 36803 ft 496 kts 155°
2026-04-26 11:38 29.29317 32.06570 36243 ft 496 kts 155°
2026-04-26 11:38 29.26537 32.08901 35640 ft 496 kts 155°
2026-04-26 11:38 29.23753 32.11233 35165 ft 493 kts 155°
2026-04-26 11:39 29.20993 32.13547 34697 ft 491 kts 154°
2026-04-26 11:39 29.18249 32.15848 34247 ft 485 kts 154°
2026-04-26 11:39 29.15549 32.18114 33759 ft 477 kts 155°
2026-04-26 11:39 29.12905 32.20338 33285 ft 466 kts 155°
2026-04-26 11:40 29.10320 32.22506 32857 ft 456 kts 155°
2026-04-26 11:40 29.07788 32.24625 32442 ft 445 kts 155°
2026-04-26 11:40 29.05314 32.26690 32040 ft 436 kts 155°
2026-04-26 11:40 29.02923 32.28684 31666 ft 426 kts 155°
2026-04-26 11:41 29.00550 32.30661 31285 ft 418 kts 155°
2026-04-26 11:42 28.84777 32.43740 28623 ft 389 kts 155°
2026-04-26 11:43 28.82601 32.45543 28331 ft 384 kts 154°
2026-04-26 11:43 28.80439 32.47342 27894 ft 385 kts 154°
2026-04-26 11:43 28.78280 32.49132 27523 ft 383 kts 154°
2026-04-26 11:43 28.76130 32.50912 27155 ft 381 kts 154°
2026-04-26 11:44 28.74709 32.52088 26916 ft 380 kts 154°
2026-04-26 11:44 28.72578 32.53851 26555 ft 378 kts 154°
2026-04-26 11:44 28.70456 32.55606 26197 ft 376 kts 154°
2026-04-26 11:44 28.68347 32.57350 25836 ft 373 kts 154°
2026-04-26 11:45 28.66266 32.59073 25476 ft 366 kts 154°
2026-04-26 11:45 28.64219 32.60767 25124 ft 362 kts 154°
2026-04-26 11:45 28.62182 32.62448 24752 ft 362 kts 153°
2026-04-26 11:45 28.60140 32.64129 24415 ft 362 kts 153°
2026-04-26 11:46 28.58099 32.65809 24077 ft 363 kts 153°
2026-04-26 11:46 28.56050 32.67494 23718 ft 364 kts 153°
2026-04-26 11:46 28.54000 32.69182 23322 ft 364 kts 153°
2026-04-26 11:46 28.51955 32.70867 22925 ft 362 kts 153°
2026-04-26 11:47 28.49924 32.72540 22554 ft 359 kts 153°
2026-04-26 11:47 28.47906 32.74203 22192 ft 356 kts 153°
2026-04-26 11:47 28.45905 32.75850 21833 ft 354 kts 153°
2026-04-26 11:47 28.43917 32.77485 21482 ft 352 kts 153°
2026-04-26 11:48 28.41941 32.79109 21137 ft 350 kts 153°
2026-04-26 11:48 28.39973 32.80726 20793 ft 347 kts 153°
2026-04-26 11:48 28.38047 32.82306 20455 ft 346 kts 153°
2026-04-26 11:48 28.36103 32.83901 20117 ft 344 kts 153°
2026-04-26 11:49 28.34159 32.85494 19776 ft 345 kts 153°
2026-04-26 11:49 28.32210 32.87089 19436 ft 345 kts 152°
2026-04-26 11:49 28.30243 32.88697 19110 ft 352 kts 152°
2026-04-26 11:49 28.28243 32.90330 18739 ft 357 kts 152°
2026-04-26 11:50 28.26233 32.91976 18384 ft 356 kts 152°
2026-04-26 11:50 28.24229 32.93619 17996 ft 354 kts 152°
2026-04-26 11:50 28.22241 32.95248 17589 ft 352 kts 152°
2026-04-26 11:50 28.20264 32.96867 17227 ft 349 kts 152°
2026-04-26 11:51 28.18304 32.98470 16869 ft 346 kts 152°
2026-04-26 11:51 28.16361 33.00059 16534 ft 343 kts 152°
2026-04-26 11:51 28.14431 33.01634 16184 ft 340 kts 152°
2026-04-26 11:51 28.12543 33.03174 15851 ft 337 kts 152°
2026-04-26 11:52 28.10622 33.04741 15501 ft 335 kts 152°
2026-04-26 11:52 28.08761 33.06258 15173 ft 333 kts 152°
2026-04-26 11:52 28.06889 33.07784 14841 ft 330 kts 152°
2026-04-26 11:52 28.05027 33.09300 14504 ft 328 kts 151°
2026-04-26 11:53 28.03182 33.10801 14193 ft 326 kts 152°
2026-04-26 11:53 28.01346 33.12296 13901 ft 324 kts 152°
2026-04-26 11:53 27.99521 33.13780 13664 ft 322 kts 152°
2026-04-26 11:54 27.95888 33.16730 13131 ft 320 kts 151°
2026-04-26 11:54 27.94079 33.18200 12878 ft 320 kts 151°
2026-04-26 11:54 27.92274 33.19666 12623 ft 319 kts 151°
2026-04-26 11:54 27.90499 33.21107 12362 ft 316 kts 150°
2026-04-26 11:55 27.88726 33.22547 12051 ft 313 kts 150°
2026-04-26 11:55 27.86962 33.23979 11732 ft 311 kts 150°
2026-04-26 11:55 27.85210 33.25398 11396 ft 309 kts 150°
2026-04-26 11:55 27.83467 33.26809 11057 ft 307 kts 150°
2026-04-26 11:56 27.81739 33.28209 10742 ft 305 kts 150°
2026-04-26 11:56 27.80023 33.29600 10469 ft 302 kts 150°
2026-04-26 11:56 27.78333 33.30973 10287 ft 294 kts 150°
2026-04-26 11:56 27.76698 33.32301 10141 ft 285 kts 150°
2026-04-26 11:57 27.75124 33.33578 10068 ft 273 kts 150°
2026-04-26 11:57 27.73591 33.34816 9870 ft 269 kts 150°
2026-04-26 11:57 27.72070 33.36043 9583 ft 268 kts 150°
2026-04-26 11:57 27.70559 33.37264 9297 ft 266 kts 150°
2026-04-26 11:58 27.69061 33.38469 9038 ft 264 kts 150°
2026-04-26 11:58 27.67574 33.39671 8747 ft 262 kts 150°
2026-04-26 11:58 27.66104 33.40860 8491 ft 259 kts 151°
2026-04-26 11:58 27.64646 33.42033 8258 ft 256 kts 150°
2026-04-26 11:59 27.63194 33.43200 7993 ft 256 kts 150°
2026-04-26 11:59 27.61742 33.44369 7732 ft 256 kts 150°
2026-04-26 11:59 27.60294 33.45537 7471 ft 256 kts 150°
2026-04-26 11:59 27.58842 33.46709 7200 ft 259 kts 148°
2026-04-26 12:00 27.57352 33.47908 6949 ft 266 kts 148°
2026-04-26 12:00 27.55821 33.49141 6670 ft 273 kts 148°
2026-04-26 12:00 27.54270 33.50389 6378 ft 274 kts 148°
2026-04-26 12:00 27.52742 33.51618 6080 ft 273 kts 148°
2026-04-26 12:01 27.51229 33.52903 5809 ft 273 kts 141°
2026-04-26 12:01 27.49875 33.54407 5535 ft 273 kts 137°
2026-04-26 12:01 27.48571 33.55961 5258 ft 273 kts 136°
2026-04-26 12:01 27.47267 33.57515 4962 ft 273 kts 137°
2026-04-26 12:02 27.45956 33.59064 4688 ft 273 kts 136°
2026-04-26 12:02 27.44645 33.60600 4398 ft 270 kts 136°
2026-04-26 12:02 27.43358 33.62101 4108 ft 263 kts 137°
2026-04-26 12:02 27.42107 33.63554 3939 ft 252 kts 137°
2026-04-26 12:03 27.40922 33.64927 3829 ft 237 kts 137°
2026-04-26 12:03 27.39808 33.66213 3722 ft 224 kts 137°
2026-04-26 12:03 27.38732 33.67454 3641 ft 220 kts 138°
2026-04-26 12:03 27.37686 33.68661 3534 ft 210 kts 137°
2026-04-26 12:04 27.36696 33.69804 3404 ft 200 kts 137°
2026-04-26 12:04 27.35738 33.70900 3217 ft 193 kts 140°
2026-04-26 12:04 27.34619 33.71630 3011 ft 182 kts 162°
2026-04-26 12:04 27.33483 33.72150 2838 ft 170 kts 159°
2026-04-26 12:05 27.32426 33.72658 2652 ft 163 kts 158°
2026-04-26 12:05 27.31391 33.73153 2533 ft 159 kts 159°
2026-04-26 12:05 27.30387 33.73645 2426 ft 160 kts 155°
2026-04-26 12:05 27.29355 33.74174 2192 ft 164 kts 158°
2026-04-26 12:06 27.28321 33.74647 1965 ft 158 kts 158°
2026-04-26 12:06 27.27324 33.75092 1792 ft 153 kts 158°
2026-04-26 12:06 27.26315 33.75541 1614 ft 159 kts 158°
2026-04-26 12:06 27.25277 33.76001 1380 ft 158 kts 158°
2026-04-26 12:07 27.24281 33.76449 1172 ft 153 kts 156°
2026-04-26 12:07 27.23329 33.76945 1076 ft 147 kts 152°
2026-04-26 12:07 27.22438 33.77468 840 ft 143 kts 154°
2026-04-26 12:07 27.21519 33.77910 592 ft 146 kts 156°
2026-04-26 12:08 27.20526 33.78316 396 ft 152 kts 163°
2026-04-26 12:08 27.19498 33.78623 181 ft 155 kts 161°
2026-04-26 12:08 27.18506 33.78923 98 ft 138 kts 166°
2026-04-26 12:08 27.17722 33.79149 96 ft 95 kts 165°
2026-04-26 12:09 27.17230 33.79294 105 ft 51 kts 165°
2026-04-26 12:09 27.17003 33.79374 108 ft 27 kts 148°
2026-04-26 12:09 27.16881 33.79483 110 ft 11 kts 137°
2026-04-26 12:09 27.16860 33.79561 107 ft 12 kts 64°
2026-04-26 12:10 27.16933 33.79577 107 ft 12 kts 348°
2026-04-26 12:10 27.17028 33.79551 106 ft 18 kts 345°
2026-04-26 12:10 27.17167 33.79509 102 ft 13 kts 347°
2026-04-26 12:10 27.17242 33.79563 99 ft 16 kts 71°
2026-04-26 12:11 27.17280 33.79716 84 ft 25 kts 76°
2026-04-26 12:11 27.17332 33.79941 52 ft 33 kts 75°
2026-04-26 12:11 27.17392 33.80185 47 ft 32 kts 75°
2026-04-26 12:11 27.17427 33.80335 50 ft 15 kts 75°
2026-04-26 12:12 27.17453 33.80446 54 ft 14 kts 75°
2026-04-26 12:12 27.17479 33.80552 51 ft 14 kts 75°
2026-04-26 12:12 27.17542 33.80614 54 ft 13 kts 353°
2026-04-26 12:12 27.17600 33.80599 55 ft 13 kts 345°
2026-04-26 12:13 27.17714 33.80564 55 ft 12 kts 345°
2026-04-26 12:13 27.17758 33.80585 56 ft 8 kts 84°
2026-04-26 12:13 27.17771 33.80645 55 ft 8 kts 75°
2026-04-26 12:13 27.17778 33.80675 52 ft 0 kts 75°